Location: Dead Woman Crossing
(43.5369°N, 106.3228°W)
Time: 00:58:57
(UTC+00:00)

AO-109 - Visible Passes

Search period start: 29 June 2022 00:00
Search period end: 09 July 2022 00:00
Orbit: 477 x 502 km, 60.7° (Epoch: 28 June)

Date Brightness Start Highest point End Pass type
(mag) Time Alt. Az. Time Alt. Az. Time Alt. Az.
01 Jul ? 10:28:28 10° S 10:31:48 32° ESE 10:35:11 10° ENE visible
02 Jul ? 10:04:36 12° S 10:07:25 28° ESE 10:10:40 10° ENE visible
03 Jul ? 09:41:03 16° SSE 09:43:01 25° ESE 09:46:07 10° ENE visible
04 Jul ? 09:17:27 19° SSE 09:18:37 22° ESE 09:21:32 10° ENE visible
05 Jul ? 08:53:47 19° SE 08:54:12 19° ESE 08:56:55 10° ENE visible
05 Jul ? 10:28:12 12° WSW 10:31:25 43° NW 10:35:01 10° NNE visible
06 Jul ? 08:30:04 17° ESE 08:30:04 17° ESE 08:32:15 10° ENE visible
06 Jul ? 10:04:29 19° WSW 10:06:56 48° NW 10:10:35 10° NNE visible
07 Jul ? 08:06:17 14° E 08:06:17 14° E 08:07:31 10° E visible
07 Jul ? 09:40:42 27° WSW 09:42:26 55° NW 09:46:09 10° NNE visible
08 Jul ? 07:42:27 11° E 07:42:27 11° E 07:42:41 10° E visible
08 Jul ? 09:16:51 41° WSW 09:17:56 63° NW 09:21:41 10° NE visible
08 Jul ? 10:54:30 10° NW 10:56:10 12° NNW 10:57:50 10° N visible
